{"data":{"norad_id":56955,"intl_designator":"2023-084Z","name":"BLACKJACK ACES-2","alt_names":[],"object_type":"PAYLOAD","status":"ACTIVE","operator":null,"country":"US","launch_date":"2023-06-12","launch_site_code":"AFWTR","launch_vehicle":null,"mission":null,"orbit_class":"UNKNOWN","rcs_meters":null,"size_class":null,"mass_kg":null,"dimensions":null,"purposes":[],"wikipedia_slug":null,"has_3d_model":false,"image_url":null,"decayed_at":null,"tle_current":{"epoch":"2026-05-25T02:40:41.443392Z","epoch_age_seconds":62096,"freshness":"FRESH","line1":"1 56955U 23084Z   26145.11159078  .00006241  00000+0  30792-3 0  9993","line2":"2 56955  97.6174 280.2192 0002154  87.6264 272.5216 15.18270851163671","mean_motion":15.18270851,"eccentricity":0.0002154,"inclination_deg":97.6174,"raan_deg":280.2192,"arg_perigee_deg":87.6264,"mean_anomaly_deg":272.5216,"bstar":0.00030792,"rev_number":16367,"period_min":94.844737291212,"perigee_km":509.58243322038,"apogee_km":512.55030203115,"semimajor_km":6889.2033676258,"source":"CELESTRAK","updated_at":"2026-05-25T13:37:59.786209Z"}}}